| time (UTC) | temp F | wind direction | speed knots | gust knots | rain 1hr in | rain 24hr in | rain mn in | humidity % | barometer mb |
| 20260903104253 | 78 | 164 | 0.9 | 0.9 | 0.00 | 0.00 | 0.00 | 90 | 1013.4 |
| 20260903101252 | 78 | 43 | 0.9 | 1.7 | 0.00 | 0.00 | 0.00 | 90 | 1013.4 |
| 20260903094253 | 80 | 334 | 0.0 | 0.0 | 0.00 | 0.00 | 0.00 | 84 | 1013.6 |
| 20260903091249 | 80 | 282 | 0.0 | 0.0 | 0.00 | 0.00 | 0.00 | 83 | 1013.2 |
| 20260903084248 | 80 | 152 | 1.7 | 1.7 | 0.00 | 0.00 | 0.00 | 85 | 1013.3 |
| 20260903081246 | 80 | 174 | 0.9 | 0.9 | 0.00 | 0.00 | 0.00 | 86 | 1013.1 |
| 20260903074246 | 80 | 210 | 0.0 | 0.9 | 0.00 | 0.00 | 0.00 | 86 | 1013.0 |
| 20260903071244 | 80 | 163 | 0.0 | 0.9 | 0.00 | 0.00 | 0.00 | 86 | 1013.3 |
| 20260903064240 | 80 | 23 | 1.7 | 1.7 | 0.00 | 0.00 | 0.00 | 85 | 1013.3 |
| 20260903061239 | 80 | 69 | 0.9 | 1.7 | 0.00 | 0.00 | 0.00 | 84 | 1013.2 |
| 20260903054233 | 80 | 339 | 0.9 | 1.7 | 0.00 | 0.00 | 0.00 | 83 | 1013.8 |
| 20260903051230 | 81 | 342 | 2.6 | 2.6 | 0.00 | 0.00 | 0.00 | 80 | 1013.7 |
| 20260903044230 | 82 | 66 | 0.9 | 1.7 | 0.00 | 0.00 | 0.00 | 77 | 1013.8 |
| 20260903041224 | 83 | 50 | 2.6 | 4.3 | 0.00 | 0.00 | 0.00 | 74 | 1013.8 |
| 20260903034224 | 84 | 25 | 1.7 | 2.6 | 0.00 | 0.00 | 0.00 | 72 | 1013.7 |
| 20260903031222 | 85 | 23 | 1.7 | 2.6 | 0.00 | 0.00 | 0.00 | 70 | 1013.7 |
| 20260903024222 | 86 | 56 | 1.7 | 4.3 | 0.00 | 0.00 | 0.00 | 67 | 1013.6 |
| 20260903021219 | 88 | 6 | 0.9 | 1.7 | 0.00 | 0.00 | 0.00 | 64 | 1013.2 |
| 20260903014217 | 90 | 49 | 0.0 | 0.0 | 0.00 | 0.00 | 0.00 | 60 | 1012.7 |
| 20260903011215 | 91 | 355 | 0.9 | 1.7 | 0.00 | 0.00 | 0.00 | 57 | 1012.1 |
| 20260903004214 | 93 | 150 | 1.7 | 1.7 | 0.00 | 0.00 | 0.00 | 56 | 1012.2 |
| 20260903001212 | 93 | 30 | 1.7 | 2.6 | 0.00 | 0.00 | 0.00 | 57 | 1012.0 |
| 20260902234211 | 92 | 358 | 0.9 | 0.9 | 0.00 | 0.00 | 0.00 | 59 | 1011.9 |
| 20260902231211 | 91 | 237 | 0.9 | 0.9 | 0.00 | 0.00 | 0.00 | 63 | 1011.8 |
| 20260902224206 | 98 | 65 | 2.6 | 6.1 | 0.00 | 0.00 | 0.00 | 51 | 1011.6 |
| 20260902221206 | 99 | 93 | 2.6 | 4.3 | 0.00 | 0.00 | 0.00 | 45 | 1011.3 |
| 20260902214204 | 98 | 128 | 2.6 | 5.2 | 0.00 | 0.00 | 0.00 | 46 | 1011.7 |
| 20260902211159 | 99 | 69 | 2.6 | 4.3 | 0.00 | 0.00 | 0.00 | 45 | 1011.9 |
| 20260902204155 | 100 | 322 | 6.1 | 7.0 | 0.00 | 0.00 | 0.00 | 45 | 1012.3 |
| 20260902201156 | 98 | 47 | 2.6 | 4.3 | 0.00 | 0.00 | 0.00 | 46 | 1012.8 |
| 20260902194154 | 100 | 325 | 2.6 | 4.3 | 0.00 | 0.00 | 0.00 | 45 | 1013.5 |
| 20260902191154 | 97 | 330 | 0.9 | 1.7 | 0.00 | 0.00 | 0.00 | 50 | 1013.9 |
| 20260902184150 | 97 | 3 | 0.9 | 0.9 | 0.00 | 0.00 | 0.00 | 50 | 1014.7 |
| 20260902181147 | 96 | 39 | 1.7 | 2.6 | 0.00 | 0.00 | 0.00 | 55 | 1015.1 |
| 20260902174142 | 95 | 19 | 3.5 | 5.2 | 0.00 | 0.00 | 0.00 | 56 | 1015.6 |
| 20260902171141 | 93 | 303 | 0.0 | 0.9 | 0.00 | 0.00 | 0.00 | 59 | 1016.3 |
| 20260902164138 | 92 | 333 | 0.9 | 1.7 | 0.00 | 0.00 | 0.00 | 62 | 1016.7 |
| 20260902161135 | 91 | 339 | 0.9 | 0.9 | 0.00 | 0.00 | 0.00 | 62 | 1016.9 |
| 20260902154131 | 91 | 229 | 1.7 | 2.6 | 0.00 | 0.00 | 0.00 | 64 | 1016.6 |
| 20260902151130 | 88 | 241 | 0.9 | 1.7 | 0.00 | 0.00 | 0.00 | 69 | 1016.6 |
| 20260902144130 | 86 | 170 | 0.9 | 0.9 | 0.00 | 0.00 | 0.00 | 72 | 1016.7 |
| 20260902141129 | 85 | 44 | 1.7 | 1.7 | 0.00 | 0.00 | 0.00 | 74 | 1016.5 |
| 20260902134127 | 84 | 190 | 0.9 | 0.9 | 0.00 | 0.00 | 0.00 | 76 | 1016.0 |
| 20260902131127 | 83 | 58 | 0.9 | 0.9 | 0.00 | 0.00 | 0.00 | 75 | 1016.3 |
| 20260902124122 | 81 | 47 | 0.9 | 1.7 | 0.00 | 0.00 | 0.00 | 79 | 1016.1 |
| 20260902121121 | 77 | 1 | 0.0 | 0.0 | 0.00 | 0.00 | 0.00 | 85 | 1016.1 |
| 20260902114117 | 77 | 359 | 0.0 | 0.0 | 0.00 | 0.00 | 0.00 | 85 | 1016.1 |
| 20260902111114 | 78 | 171 | 0.0 | 0.0 | 0.00 | 0.00 | 0.00 | 85 | 1016.0 |